sat.trackr.live / text

‹ back to catalog

STARLINK-30388

NORAD 57784 · 2023-134P

PAYLOAD ACTIVE UNKNOWN

§ Identity

Operator
Country
US
Launch date
2023-09-04
Launch site
AFETR
Launch vehicle
Mass (kg)
RCS (m²)

Purposes: comms

External: N2YO · Heavens-Above · Gunter

§ Orbital elements

Epoch: 2026-05-25T05:17:59.307648Z

Period
94.27 min
Inclination
43.0013°
Eccentricity
0.0001333
Mean motion
15.27568466 rev/d
Perigee alt
482.2 km
Apogee alt
484.0 km
Semi-major
6,861.2 km
B*
7.6034e-5
RAAN
122.0736°
Arg perigee
267.3833°
Mean anomaly
92.6866°
Rev number
15,121

§ Raw data

STARLINK-303881 57784U 23134P   26145.22082532  .00001830  00000+0  76034-4 0  99912 57784  43.0013 122.0736 0001333 267.3833  92.6866 15.27568466151214

JSON: /api/v1/satellites/57784 · /tle

For live sub-satellite position, see the globe view (requires WebGL).

§ Visibility from observer

Set your observer location to see the next 7 days of passes ≥ 10°. The values pass through the URL so the page stays shareable.

No JS? Fill the form by hand. The geolocation button needs JavaScript.